Location: Warren
(41.8440°N, 79.1450°W)
Time: 04:48:48
(UTC-05:00)

OTV 5 (USA 277) - Visible Passes

Search period start: 23 January 2018 00:00
Search period end: 02 February 2018 00:00
Orbit: 404 x 417 km, 43.0° (Epoch: 07 September)

Date Brightness Start Highest point End Pass type
(mag) Time Alt. Az. Time Alt. Az. Time Alt. Az.
23 Jan ? 17:51:50 10° S 17:53:37 14° SE 17:55:24 10° ESE visible
23 Jan ? 19:27:10 10° WSW 19:29:15 33° SW 19:29:15 33° SW visible
24 Jan ? 18:36:16 10° SW 18:39:28 41° SSE 18:40:43 28° ESE visible
24 Jan ? 20:13:19 10° W 20:13:29 11° W 20:13:29 11° W visible
25 Jan ? 19:22:14 10° WSW 19:24:54 53° W 19:24:54 53° W visible
26 Jan ? 18:31:11 10° WSW 18:34:32 76° SSE 18:36:18 26° E visible
26 Jan ? 20:08:34 10° W 20:09:03 13° W 20:09:03 13° W visible
27 Jan ? 19:17:27 10° W 19:20:26 61° NW 19:20:26 61° NW visible
28 Jan ? 18:26:21 10° W 18:29:43 76° N 18:31:48 21° ENE visible
28 Jan ? 20:03:46 10° WNW 20:04:34 16° WNW 20:04:34 16° WNW visible
29 Jan ? 19:12:41 10° W 19:15:58 73° NNW 19:15:58 73° NNW visible
30 Jan ? 18:21:35 10° W 18:24:57 70° N 18:27:23 17° E visible
30 Jan ? 19:58:58 10° W 20:00:09 20° W 20:00:09 20° W visible
31 Jan ? 19:07:53 10° WNW 19:11:15 80° SSW 19:11:38 66° SE visible
01 Feb ? 18:16:48 10° WNW 18:20:11 85° NNE 18:23:11 13° E visible
01 Feb ? 19:54:18 10° W 19:55:58 22° WSW 19:55:58 22° WSW visible
